Weather History for PATG - July, 2013

Change the Weather History Date:

Saturday, July 13, 2013

  Actual Average Record
Temperature  
Mean Temperature 56 °F -  
Max Temperature 64 °F 57 °F 75 °F (2003)
Min Temperature 48 °F 46 °F 42 °F (1997)
Degree Days  
Heating Degree Days 9    
Growing Degree Days 6 (Base 50)    
Moisture  
Dew Point 54 °F    
Average Humidity 83    
Maximum Humidity 100    
Minimum Humidity 64    
Precipitation  
Precipitation 0.00 in - - ()
Sea Level Pressure  
Sea Level Pressure 30.00 in    
Wind  
Wind Speed 6 mph (SW)    
Max Wind Speed 13 mph    
Max Gust Speed -    
Visibility 10 miles    
Events      
Averages and records for this station are not official NWS values.
T = Trace of Precipitation, MM = Missing Value Source: NWS Daily Summary

Daily Weather History Graph

Daily Weather History Graph

Search for Another Location

Airport or City:

Trip Planner

Search our weather history database for the weather conditions in past years. The results will help you decide how hot, cold, wet, or windy it might be!

Date:

Astronomy

Jul. 13, 2013 Rise Set
Actual Time 5:51 AM AKDT 11:42 PM AKDT
Civil Twilight 4:38 AM AKDT 12:53 AM AKDT
Nautical Twilight Sun does not set 2:15 AM AKDT
Astronomical Twilight Sun does not set Sun does not set
Moon 12:56 PM AKDT (7/13) 12:30 AM AKDT (7/13)
Length of Visible Light 20h 15m
Length of Day
17h 51m
Waxing Crescent, 27% of the Moon is Illuminated
Jul 13
Waxing Crescent
Jul 15
First Quarter
Jul 22
Full
Jul 29
Last Quarter
Aug 6
New

Hourly Weather History & Observations

Time (AKDT) Temp. Dew Point Humidity Pressure Visibility Wind Dir Wind Speed Gust Speed Precip Events Conditions
12:16 AM 62.6 °F 55.4 °F 77% 29.95 in 10.0 mi SW 5.8 mph - N/A   Clear
12:36 AM 62.6 °F 55.4 °F 77% 29.96 in 10.0 mi South 5.8 mph - N/A   Clear
12:56 AM 60.8 °F 55.4 °F 82% 29.96 in 10.0 mi SSW 3.5 mph - N/A   Clear
1:16 AM 60.8 °F 55.4 °F 82% 29.96 in 10.0 mi Calm Calm - N/A   Clear
1:36 AM 57.2 °F 55.4 °F 94% 29.96 in 9.0 mi Calm Calm - N/A   Clear
1:56 AM 55.4 °F 53.6 °F 94% 29.96 in 10.0 mi North 3.5 mph - N/A   Clear
2:16 AM 53.6 °F 51.8 °F 94% 29.96 in 10.0 mi North 4.6 mph - N/A   Clear
2:36 AM 53.6 °F 51.8 °F 94% 29.96 in 10.0 mi North 5.8 mph - N/A   Clear
2:56 AM 53.6 °F 51.8 °F 94% 29.96 in 10.0 mi NNE 4.6 mph - N/A   Clear
3:16 AM 53.6 °F 51.8 °F 94% 29.96 in 10.0 mi North 5.8 mph - N/A   Clear
3:36 AM 51.8 °F 50.0 °F 94% 29.96 in 10.0 mi North 5.8 mph - N/A   Clear
3:56 AM 50.0 °F 48.2 °F 94% 29.96 in 10.0 mi North 6.9 mph - N/A   Clear
4:16 AM 48.2 °F 48.2 °F 100% 29.96 in 10.0 mi North 6.9 mph - N/A   Clear
4:36 AM 50.0 °F 48.2 °F 94% 29.96 in 10.0 mi North 8.1 mph - N/A   Clear
4:56 AM 50.0 °F 48.2 °F 94% 29.96 in 10.0 mi North 9.2 mph - N/A   Clear
5:16 AM 51.8 °F 48.2 °F 88% 29.96 in 10.0 mi North 6.9 mph - N/A   Clear
5:36 AM 50.0 °F 48.2 °F 94% 29.97 in 10.0 mi North 8.1 mph - N/A   Clear
5:56 AM 51.8 °F 48.2 °F 88% 29.96 in 10.0 mi North 8.1 mph - N/A   Clear
6:16 AM 51.8 °F 50.0 °F 94% 29.97 in 10.0 mi North 8.1 mph - N/A   Clear
6:36 AM 51.8 °F 48.2 °F 88% 29.97 in 10.0 mi North 5.8 mph - N/A   Clear
6:56 AM 51.8 °F 50.0 °F 94% 29.98 in 10.0 mi NNE 6.9 mph - N/A   Clear
7:16 AM 51.8 °F 48.2 °F 88% 29.97 in 10.0 mi North 5.8 mph - N/A   Clear
7:36 AM 51.8 °F 50.0 °F 94% 29.98 in 10.0 mi North 6.9 mph - N/A   Clear
7:56 AM 53.6 °F 50.0 °F 88% 29.98 in 10.0 mi North 6.9 mph - N/A   Clear
8:16 AM 53.6 °F 50.0 °F 88% 29.99 in 10.0 mi North 6.9 mph - N/A   Clear
8:36 AM 53.6 °F 50.0 °F 88% 29.99 in 10.0 mi NNE 5.8 mph - N/A   Clear
8:56 AM 53.6 °F 51.8 °F 94% 30.00 in 10.0 mi NNE 4.6 mph - N/A   Clear
9:16 AM 57.2 °F 51.8 °F 82% 30.00 in 10.0 mi NE 6.9 mph - N/A   Clear
9:36 AM 59.0 °F 53.6 °F 82% 30.00 in 10.0 mi NE 6.9 mph - N/A   Clear
9:56 AM 60.8 °F 53.6 °F 77% 30.00 in 10.0 mi NE 5.8 mph - N/A   Clear
10:16 AM 62.6 °F 53.6 °F 72% 30.00 in 10.0 mi ENE 4.6 mph - N/A   Clear
10:36 AM 62.6 °F 53.6 °F 72% 30.00 in 10.0 mi East 3.5 mph - N/A   Clear
10:56 AM 62.6 °F 51.8 °F 68% 30.00 in 10.0 mi Calm Calm - N/A   Clear
11:16 AM 64.4 °F 51.8 °F 64% 30.00 in 10.0 mi Calm Calm - N/A   Clear
11:36 AM 64.4 °F 51.8 °F 64% 30.00 in 10.0 mi SSW 4.6 mph - N/A   Clear
11:56 AM 62.6 °F 53.6 °F 72% 30.00 in 10.0 mi SW 6.9 mph - N/A   Clear
12:16 PM 62.6 °F 55.4 °F 77% 30.00 in 10.0 mi SW 6.9 mph - N/A   Clear
12:36 PM 62.6 °F 55.4 °F 77% 30.01 in 10.0 mi SW 8.1 mph - N/A   Clear
12:56 PM 62.6 °F 55.4 °F 77% 30.01 in 10.0 mi SW 9.2 mph - N/A   Clear
1:16 PM 62.6 °F 55.4 °F 77% 30.01 in 10.0 mi SW 9.2 mph - N/A   Clear
1:36 PM 62.6 °F 57.2 °F 82% 30.02 in 10.0 mi SSW 8.1 mph - N/A   Clear
1:56 PM 62.6 °F 57.2 °F 82% 30.02 in 10.0 mi SSW 9.2 mph - N/A   Clear
2:16 PM 62.6 °F 57.2 °F 82% 30.02 in 10.0 mi SSW 10.4 mph - N/A   Clear
2:36 PM 62.6 °F 57.2 °F 82% 30.02 in 10.0 mi SSW 10.4 mph - N/A   Clear
2:56 PM 62.6 °F 57.2 °F 82% 30.03 in 10.0 mi SW 10.4 mph - N/A   Clear
3:16 PM 62.6 °F 57.2 °F 82% 30.03 in 10.0 mi SSW 12.7 mph - N/A   Clear
3:36 PM 62.6 °F 57.2 °F 82% 30.03 in 10.0 mi SSW 11.5 mph - N/A   Clear
3:56 PM 62.6 °F 57.2 °F 82% 30.03 in 10.0 mi SSW 10.4 mph - N/A   Clear
4:16 PM 64.4 °F 57.2 °F 77% 30.03 in 10.0 mi SSW 10.4 mph - N/A   Clear
4:36 PM 64.4 °F 57.2 °F 77% 30.03 in 10.0 mi SSW 10.4 mph - N/A   Clear
4:56 PM 64.4 °F 57.2 °F 77% 30.02 in 10.0 mi South 12.7 mph - N/A   Clear
5:16 PM 64.4 °F 57.2 °F 77% 30.03 in 10.0 mi SSW 11.5 mph - N/A   Clear
5:36 PM 62.6 °F 57.2 °F 82% 30.03 in 10.0 mi SSW 10.4 mph - N/A   Clear
5:56 PM 62.6 °F 57.2 °F 82% 30.03 in 10.0 mi SSW 10.4 mph - N/A   Clear
6:16 PM 64.4 °F 57.2 °F 77% 30.03 in 10.0 mi SSW 11.5 mph - N/A   Clear
6:36 PM 64.4 °F 57.2 °F 77% 30.03 in 10.0 mi SSW 12.7 mph - N/A   Clear
6:56 PM 62.6 °F 57.2 °F 82% 30.03 in 10.0 mi SSW 12.7 mph - N/A   Clear
7:16 PM 62.6 °F 57.2 °F 82% 30.04 in 10.0 mi SW 12.7 mph - N/A   Clear
7:36 PM 62.6 °F 55.4 °F 77% 30.04 in 10.0 mi SW 10.4 mph - N/A   Clear
7:56 PM 60.8 °F 55.4 °F 82% 30.04 in 10.0 mi SSW 10.4 mph - N/A   Clear
8:16 PM 60.8 °F 55.4 °F 82% 30.04 in 10.0 mi SW 10.4 mph - N/A   Clear
8:36 PM 60.8 °F 55.4 °F 82% 30.04 in 10.0 mi SSW 9.2 mph - N/A   Clear
8:56 PM 60.8 °F 55.4 °F 82% 30.04 in 10.0 mi SSW 5.8 mph - N/A   Clear
9:16 PM 60.8 °F 55.4 °F 82% 30.05 in 10.0 mi SSW 5.8 mph - N/A   Clear
9:36 PM 60.8 °F 55.4 °F 82% 30.05 in 10.0 mi South 5.8 mph - N/A   Clear
9:56 PM 60.8 °F 55.4 °F 82% 30.05 in 10.0 mi SSW 5.8 mph - N/A   Clear
10:16 PM 60.8 °F 55.4 °F 82% 30.06 in 10.0 mi SSW 5.8 mph - N/A   Clear
10:36 PM 60.8 °F 55.4 °F 82% 30.06 in 10.0 mi South 3.5 mph - N/A   Clear
10:56 PM 59.0 °F 55.4 °F 88% 30.06 in 10.0 mi South 4.6 mph - N/A   Clear
11:16 PM 60.8 °F 55.4 °F 82% 30.06 in 10.0 mi SSE 4.6 mph - N/A   Clear
11:36 PM 60.8 °F 55.4 °F 82% 30.06 in 10.0 mi SSW 3.5 mph - N/A   Clear
11:56 PM 60.8 °F 55.4 °F 82% 30.06 in 10.0 mi SSE 3.5 mph - N/A   Clear